This is the latest recevied weather packets stored in our database for station/object KE8RXN. If no packets are shown the sender has not sent any weather packets the latest 10 day(s).
| Time | Temp. | Humidity | Pressure | Rain* | Wind** | Luminosity | Snow |
|---|---|---|---|---|---|---|---|
| 1777859391 | 11.67° C | 71% | 1009.8 hPa | 0 mm | - | 0 W/m² | - |
| 1777859088 | 11.67° C | 70% | 1010 hPa | 0 mm | - | 0 W/m² | - |
| 1777858785 | 11.67° C | 70% | 1009.9 hPa | 0 mm | - | 0 W/m² | - |
| 1777858483 | 11.67° C | 70% | 1009.8 hPa | 0 mm | - | 0 W/m² | - |
| 1777858178 | 11.67° C | 69% | 1009.9 hPa | 0 mm | - | 0 W/m² | - |
| 1777857877 | 11.67° C | 69% | 1009.9 hPa | 0 mm | - | 0 W/m² | - |
| 1777857575 | 11.67° C | 68% | 1009.7 hPa | 0 mm | - | 0 W/m² | - |
| 1777857271 | 12.22° C | 68% | 1009.7 hPa | 0 mm | - | 0 W/m² | - |
| 1777856967 | 12.22° C | 68% | 1009.7 hPa | 0 mm | - | 0 W/m² | - |
| 1777856663 | 12.22° C | 67% | 1009.7 hPa | 0 mm | - | 0 W/m² | - |
| 1777856359 | 12.22° C | 66% | 1009.8 hPa | 0 mm | - | 0 W/m² | - |
| 1777856056 | 12.78° C | 66% | 1009.9 hPa | 0 mm | - | 0 W/m² | - |
| 1777855754 | 12.78° C | 65% | 1009.7 hPa | 0 mm | - | 0 W/m² | - |
| 1777855451 | 12.78° C | 65% | 1009.7 hPa | 0 mm | - | 1 W/m² | - |
| 1777855148 | 12.78° C | 65% | 1009.8 hPa | 0 mm | - | 2 W/m² | - |
| 1777854844 | 12.78° C | 64% | 1009.7 hPa | 0 mm | - | 2 W/m² | - |
| 1777854541 | 12.78° C | 64% | 1009.8 hPa | 0 mm | - | 3 W/m² | - |
| 1777854238 | 12.78° C | 64% | 1009.9 hPa | 0 mm | - | 6 W/m² | - |
| 1777853935 | 12.78° C | 64% | 1009.8 hPa | 0 mm | - | 7 W/m² | - |
| 1777853633 | 12.78° C | 64% | 1009.9 hPa | 0 mm | - | 11 W/m² | - |
| 1777853329 | 12.78° C | 64% | 1009.9 hPa | 0 mm | - | 14 W/m² | - |
| 1777853026 | 12.78° C | 63% | 1010.1 hPa | 0 mm | - | 15 W/m² | - |
| 1777852724 | 13.33° C | 63% | 1010.1 hPa | 0 mm | - | 24 W/m² | - |
| 1777852422 | 12.78° C | 63% | 1010.3 hPa | 0 mm | - | 26 W/m² | - |
| 1777852119 | 12.78° C | 63% | 1010.1 hPa | 0 mm | - | 29 W/m² | - |
* Rain latest hour (hover to see other rain measurements)
** Current wind speed in m/s (hover to see current wind gust speed)